Ravenna, OH

1:03 AM EDT on September 25, 2017 (GMT -0400)
Ravenna

Weather History for KPOV - March, 2013

Change the Weather History Date:

Friday, March 22, 2013

  Actual Average (KCAK) Record (KCAK)
Temperature  
Mean Temperature 28 °F -  
Max Temperature 32 °F 47 °F 83 °F (2012)
Min Temperature 23 °F 29 °F 10 °F (1888)
Degree Days  
Heating Degree Days 38    
Moisture  
Dew Point 21 °F    
Average Humidity 80    
Maximum Humidity 95    
Minimum Humidity 60    
Precipitation  
Precipitation 0.00 in - - ()
Sea Level Pressure  
Sea Level Pressure 29.93 in    
Wind  
Wind Speed 9 mph (West)    
Max Wind Speed 15 mph    
Max Gust Speed 20 mph    
Visibility 7 miles    
Events Snow    
Averages and records for this station are not official NWS values.
T = Trace of Precipitation, MM = Missing Value Source: NWS Daily Summary

Daily Weather History Graph

Daily Weather History Graph

Search for Another Location

Airport or City:

Trip Planner

Search our weather history database for the weather conditions in past years. The results will help you decide how hot, cold, wet, or windy it might be!

Date:

Astronomy

Mar. 22, 2013 Rise Set
Actual Time 7:24 AM EDT 7:39 PM EDT
Civil Twilight 6:57 AM EDT 8:07 PM EDT
Nautical Twilight 6:24 AM EDT 8:39 PM EDT
Astronomical Twilight 5:51 AM EDT 9:12 PM EDT
Moon 3:03 PM EDT (3/22) 4:26 AM EDT (3/22)
Length of Visible Light 13h 10m
Length of Day
12h 15m
Waxing Gibbous, 77% of the Moon is Illuminated
Mar 22
Waxing Gibbous
Mar 27
Full
Apr 3
Last Quarter
Apr 10
New
Apr 18
First Quarter

Hourly Weather History & Observations

Time (EDT) Temp. Windchill Dew Point Humidity Pressure Visibility Wind Dir Wind Speed Gust Speed Precip Events Conditions
12:16 AM 26.1 °F 15.6 °F 24.8 °F 95% 29.86 in 3.0 mi WSW 11.5 mph 18.4 mph N/A Snow Light Snow
12:36 AM 26.1 °F 15.6 °F 24.4 °F 94% 29.86 in 4.0 mi WSW 11.5 mph 17.3 mph N/A Snow Light Snow
12:57 AM 26.1 °F 15.0 °F 23.4 °F 90% 29.86 in 7.0 mi West 12.7 mph 18.4 mph N/A Snow Light Snow
1:16 AM 26.1 °F 16.2 °F 22.6 °F 87% 29.86 in 7.0 mi West 10.4 mph 19.6 mph N/A Snow Light Snow
1:36 AM 25.7 °F 15.7 °F 22.5 °F 88% 29.87 in 5.0 mi West 10.4 mph 18.4 mph N/A Snow Light Snow
1:56 AM 25.7 °F 15.1 °F 22.1 °F 86% 29.87 in 7.0 mi West 11.5 mph 18.4 mph N/A Snow Light Snow
2:16 AM 25.7 °F 13.5 °F 21.7 °F 85% 29.87 in 4.0 mi West 15.0 mph 19.6 mph N/A Snow Light Snow
2:36 AM 25.5 °F 16.2 °F 21.2 °F 84% 29.87 in 7.0 mi West 9.2 mph 16.1 mph N/A Snow Light Snow
2:56 AM 25.5 °F 15.5 °F 20.7 °F 82% 29.87 in 7.0 mi West 10.4 mph - N/A Snow Light Snow
3:16 AM 25.3 °F 14.7 °F 20.3 °F 81% 29.87 in 7.0 mi West 11.5 mph - N/A Snow Light Snow
3:36 AM 25.3 °F 14.7 °F 20.3 °F 81% 29.87 in 10.0 mi West 11.5 mph 16.1 mph N/A Snow Light Snow
3:57 AM 25.2 °F 14.4 °F 20.3 °F 82% 29.87 in 10.0 mi West 11.5 mph - N/A Snow Light Snow
4:16 AM 25.0 °F 14.2 °F 20.3 °F 82% 29.87 in 7.0 mi West 11.5 mph - N/A Snow Light Snow
4:36 AM 24.8 °F 14.6 °F 20.8 °F 85% 29.87 in 2.5 mi West 10.4 mph - N/A Snow Light Snow
4:56 AM 24.4 °F 14.9 °F 21.0 °F 87% 29.87 in 5.0 mi West 9.2 mph - N/A Snow Light Snow
5:16 AM 24.4 °F 14.2 °F 21.0 °F 87% 29.87 in 4.0 mi West 10.4 mph - N/A Snow Light Snow
5:36 AM 24.4 °F 14.9 °F 21.0 °F 87% 29.87 in 10.0 mi West 9.2 mph 16.1 mph N/A Snow Light Snow
5:56 AM 24.3 °F 13.9 °F 21.0 °F 87% 29.88 in 4.0 mi West 10.4 mph 16.1 mph N/A Snow Light Snow
6:16 AM 23.9 °F 13.5 °F 21.2 °F 89% 29.89 in 7.0 mi West 10.4 mph - N/A Snow Light Snow
6:36 AM 23.9 °F 14.2 °F 21.2 °F 89% 29.89 in 5.0 mi West 9.2 mph - N/A Snow Light Snow
6:57 AM 23.9 °F 14.2 °F 21.0 °F 89% 29.90 in 7.0 mi WSW 9.2 mph - N/A Snow Light Snow
7:16 AM 23.9 °F 14.2 °F 20.8 °F 88% 29.90 in 5.0 mi West 9.2 mph - N/A Snow Light Snow
7:36 AM 23.9 °F 13.5 °F 21.0 °F 89% 29.91 in 5.0 mi West 10.4 mph - N/A Snow Light Snow
7:56 AM 23.9 °F 15.0 °F 21.0 °F 89% 29.92 in 3.0 mi West 8.1 mph - N/A Snow Light Snow
8:16 AM 24.1 °F 15.2 °F 21.2 °F 89% 29.92 in 4.0 mi West 8.1 mph - N/A Snow Light Snow
8:36 AM 24.3 °F 14.6 °F 21.4 °F 89% 29.92 in 2.0 mi West 9.2 mph - N/A Snow Light Snow
8:56 AM 24.4 °F 13.5 °F 21.2 °F 87% 29.92 in 1.5 mi West 11.5 mph - N/A Snow Light Snow
9:16 AM 24.4 °F 13.5 °F 21.2 °F 87% 29.92 in 1.8 mi West 11.5 mph - N/A Snow Light Snow
9:36 AM 24.6 °F 13.8 °F 21.2 °F 87% 29.92 in 1.5 mi West 11.5 mph - N/A Snow Light Snow
9:56 AM 24.8 °F 14.6 °F 21.0 °F 86% 29.92 in 2.5 mi West 10.4 mph 16.1 mph N/A Snow Light Snow
10:16 AM 24.8 °F 16.1 °F 21.2 °F 86% 29.93 in 2.0 mi West 8.1 mph - N/A Snow Light Snow
10:36 AM 24.8 °F 17.9 °F 21.6 °F 87% 29.93 in 2.0 mi West 5.8 mph - N/A Snow Light Snow
10:56 AM 25.7 °F 15.7 °F 21.6 °F 84% 29.94 in 3.0 mi West 10.4 mph - N/A Snow Light Snow
11:16 AM 26.1 °F 16.8 °F 21.7 °F 84% 29.94 in 2.5 mi West 9.2 mph - N/A Snow Light Snow
11:36 AM 26.4 °F 15.0 °F 21.0 °F 80% 29.94 in 4.0 mi West 13.8 mph 18.4 mph N/A Snow Light Snow
11:56 AM 27.3 °F 16.6 °F 20.8 °F 77% 29.95 in 3.0 mi WNW 12.7 mph - N/A Snow Light Snow
12:16 PM 27.5 °F 18.0 °F 20.8 °F 76% 29.95 in 7.0 mi WNW 10.4 mph - N/A Snow Light Snow
12:36 PM 27.1 °F 17.5 °F 21.0 °F 78% 29.95 in 5.0 mi West 10.4 mph - N/A Snow Light Snow
12:56 PM 27.3 °F 19.1 °F 21.4 °F 78% 29.95 in 7.0 mi WSW 8.1 mph - N/A Snow Light Snow
1:16 PM 26.8 °F 19.3 °F 21.2 °F 79% 29.95 in 2.5 mi WSW 6.9 mph - N/A Snow Light Snow
1:36 PM 27.1 °F 18.9 °F 21.0 °F 78% 29.95 in 3.0 mi West 8.1 mph - N/A Snow Light Snow
1:56 PM 27.3 °F 18.4 °F 20.5 °F 75% 29.96 in 7.0 mi WSW 9.2 mph - N/A Snow Light Snow
2:16 PM 27.9 °F 18.4 °F 20.1 °F 73% 29.96 in 10.0 mi West 10.4 mph - N/A   Overcast
2:36 PM 27.9 °F 18.4 °F 21.0 °F 75% 29.96 in 5.0 mi West 10.4 mph - N/A Snow Light Snow
2:56 PM 28.4 °F 19.7 °F 21.0 °F 74% 29.96 in 10.0 mi WSW 9.2 mph - N/A Snow Light Snow
3:16 PM 29.5 °F 19.9 °F 20.7 °F 70% 29.95 in 10.0 mi West 11.5 mph 18.4 mph N/A   Overcast
3:36 PM 29.3 °F 21.5 °F 20.3 °F 69% 29.95 in 10.0 mi West 8.1 mph 13.8 mph N/A   Overcast
3:56 PM 29.7 °F 20.1 °F 19.6 °F 66% 29.95 in 10.0 mi West 11.5 mph - N/A   Overcast
4:16 PM 30.0 °F 21.1 °F 19.9 °F 66% 29.95 in 10.0 mi West 10.4 mph - N/A   Overcast
4:36 PM 30.6 °F 21.8 °F 19.6 °F 64% 29.95 in 10.0 mi West 10.4 mph 16.1 mph N/A   Overcast
4:57 PM 31.1 °F 23.7 °F 19.9 °F 63% 29.95 in 10.0 mi WSW 8.1 mph - N/A   Overcast
5:16 PM 31.6 °F 24.4 °F 20.3 °F 63% 29.95 in 10.0 mi West 8.1 mph 16.1 mph N/A   Overcast
5:36 PM 31.6 °F 22.6 °F 19.9 °F 62% 29.95 in 10.0 mi West 11.5 mph 16.1 mph N/A   Overcast
5:56 PM 32.0 °F 24.8 °F 20.3 °F 62% 29.95 in 10.0 mi West 8.1 mph - N/A   Overcast
6:16 PM 32.0 °F 26.4 °F 19.9 °F 61% 29.95 in 10.0 mi West 5.8 mph - N/A   Mostly Cloudy
6:36 PM 32.0 °F 26.4 °F 19.6 °F 60% 29.95 in 10.0 mi WNW 5.8 mph - N/A   Mostly Cloudy
6:56 PM 32.2 °F 27.7 °F 19.9 °F 61% 29.95 in 10.0 mi West 4.6 mph - N/A   Scattered Clouds
7:16 PM 32.0 °F 28.7 °F 19.9 °F 61% 29.95 in 10.0 mi West 3.5 mph - N/A   Scattered Clouds
7:36 PM 31.1 °F - 20.1 °F 64% 29.96 in 10.0 mi Calm Calm - N/A   Clear
7:57 PM 28.8 °F - 21.4 °F 74% 29.96 in 10.0 mi Calm Calm - N/A   Clear
8:16 PM 27.1 °F - 21.6 °F 80% 29.97 in 10.0 mi Calm Calm - N/A   Clear
8:36 PM 26.6 °F - 20.5 °F 78% 29.97 in 10.0 mi Calm Calm - N/A   Clear
8:55 PM 27.1 °F - 21.0 °F 78% 29.98 in 10.0 mi Calm Calm - N/A   Clear
9:16 PM 26.2 °F - 20.5 °F 79% 29.98 in 10.0 mi Calm Calm - N/A   Clear
9:36 PM 24.8 °F - 20.7 °F 84% 29.98 in 10.0 mi Calm Calm - N/A   Clear
9:56 PM 24.4 °F - 20.3 °F 84% 29.98 in 10.0 mi Calm Calm - N/A   Clear
10:16 PM 24.3 °F - 21.4 °F 89% 29.98 in 10.0 mi Calm Calm - N/A   Clear
10:36 PM 23.2 °F - 19.6 °F 86% 29.98 in 10.0 mi Calm Calm - N/A   Clear
10:56 PM 23.4 °F - 21.4 °F 92% 29.98 in 10.0 mi Calm Calm - N/A   Scattered Clouds
11:16 PM 24.3 °F - 20.3 °F 85% 29.98 in 10.0 mi Calm Calm - N/A   Overcast
11:36 PM 23.9 °F - 20.1 °F 85% 29.98 in 10.0 mi Calm Calm - N/A   Overcast
11:57 PM 25.0 °F - 21.7 °F 87% 29.98 in 10.0 mi Calm Calm - N/A   Overcast